FW0864 Weather Reports


Display with metric or nautical units.
time (UTC)temp
F
wind
direction
speed
MPH
gust
MPH
rain 1hr
in
rain 24hr
in
rain mn
in
humidity
%
barometer
mb
20260904211050 77 21 2.0 5.0 0.00 0.00 0.00 44 1010.3
20260904210548 77 4 2.0 8.0 0.00 0.00 0.00 45 1010.3
20260904210049 77 318 4.0 8.0 0.00 0.00 0.00 44 1010.3
20260904205548 77 101 2.0 7.0 0.00 0.00 0.00 45 1010.4
20260904205050 76 285 0.0 5.0 0.00 0.00 0.00 46 1010.4
20260904204548 75 322 1.0 6.0 0.00 0.00 0.00 47 1010.4
20260904204049 75 346 2.0 8.0 0.00 0.00 0.00 47 1010.5
20260904203547 75 272 3.0 8.0 0.00 0.00 0.00 47 1010.5
20260904203052 75 278 3.0 5.0 0.00 0.00 0.00 46 1010.5
20260904202547 75 335 3.0 8.0 0.00 0.00 0.00 46 1010.5
20260904202046 75 292 2.0 8.0 0.00 0.00 0.00 46 1010.5
20260904201546 75 308 3.0 11.0 0.00 0.00 0.00 45 1010.5
20260904201050 75 272 4.0 11.0 0.00 0.00 0.00 45 1010.5
20260904200546 76 283 4.0 8.0 0.00 0.00 0.00 43 1010.5
20260904200046 77 332 1.0 3.0 0.00 0.00 0.00 45 1010.4
20260904195547 75 151 1.0 7.0 0.00 0.00 0.00 47 1010.4
20260904195044 75 243 3.0 7.0 0.00 0.00 0.00 47 1010.6
20260904194547 75 342 3.0 5.0 0.00 0.00 0.00 49 1010.6
20260904194043 74 312 3.0 7.0 0.00 0.00 0.00 52 1010.6
20260904193545 74 345 1.0 10.0 0.00 0.00 0.00 54 1010.6
20260904193043 74 289 4.0 11.0 0.00 0.00 0.00 53 1010.7
20260904192542 74 318 5.0 11.0 0.00 0.00 0.00 53 1010.7
20260904192042 74 237 4.0 11.0 0.00 0.00 0.00 50 1010.7
20260904191547 76 285 5.0 9.0 0.00 0.00 0.00 49 1010.8
20260904191041 76 30 2.0 8.0 0.00 0.00 0.00 50 1010.8
20260904190540 75 324 3.0 8.0 0.00 0.00 0.00 53 1010.7
20260904190046 74 332 2.0 8.0 0.00 0.00 0.00 54 1010.8
20260904185538 75 297 3.0 8.0 0.00 0.00 0.00 54 1010.8
20260904185038 74 42 2.0 10.0 0.00 0.00 0.00 56 1010.9
20260904184548 73 298 6.0 10.0 0.00 0.00 0.00 56 1011.0
20260904184036 73 343 3.0 8.0 0.00 0.00 0.00 57 1011.0
20260904183535 73 347 2.0 6.0 0.00 0.00 0.00 59 1011.0
20260904183034 72 109 3.0 6.0 0.00 0.00 0.00 59 1011.0
20260904182533 72 231 1.0 6.0 0.00 0.00 0.00 60 1011.0
20260904182032 72 328 3.0 6.0 0.00 0.00 0.00 59 1011.0
20260904181531 72 24 2.0 8.0 0.00 0.00 0.00 60 1011.0
20260904181031 72 264 5.0 8.0 0.00 0.00 0.00 59 1011.0
20260904180531 72 330 2.0 6.0 0.00 0.00 0.00 60 1011.1
20260904180030 71 8 2.0 8.0 0.00 0.00 0.00 60 1011.1
20260904175530 71 256 2.0 8.0 0.00 0.00 0.00 61 1011.0
20260904175032 72 319 4.0 8.0 0.00 0.00 0.00 60 1011.1
20260904174531 72 322 2.0 8.0 0.00 0.00 0.00 60 1011.0
20260904174029 71 337 3.0 8.0 0.00 0.00 0.00 60 1011.0
20260904173529 71 322 3.0 10.0 0.00 0.00 0.00 62 1010.9
20260904173037 71 341 5.0 10.0 0.00 0.00 0.00 62 1010.9
20260904172525 70 335 3.0 8.0 0.00 0.00 0.00 62 1010.8
20260904172025 71 290 3.0 8.0 0.00 0.00 0.00 62 1010.8
20260904171526 70 326 2.0 6.0 0.00 0.00 0.00 63 1010.8
20260904171023 70 239 2.0 9.0 0.00 0.00 0.00 63 1010.8
20260904170522 70 315 2.0 9.0 0.00 0.00 0.00 62 1010.8
20260904170035 70 301 2.0 8.0 0.00 0.00 0.00 63 1010.8
20260904165522 70 331 4.0 8.0 0.00 0.00 0.00 63 1010.8
20260904165022 70 266 4.0 8.0 0.00 0.00 0.00 63 1010.8
20260904164521 69 309 3.0 6.0 0.00 0.00 0.00 64 1010.7
20260904164018 69 349 2.0 6.0 0.00 0.00 0.00 65 1010.8
20260904163518 68 340 3.0 9.0 0.00 0.00 0.00 65 1010.8
20260904163018 68 327 3.0 8.0 0.00 0.00 0.00 65 1010.8
20260904162520 68 293 3.0 9.0 0.00 0.00 0.00 65 1010.6
20260904162014 68 13 1.0 9.0 0.00 0.00 0.00 67 1010.7
20260904161513 68 326 2.0 8.0 0.00 0.00 0.00 67 1010.7
20260904161012 67 14 2.0 8.0 0.00 0.00 0.00 68 1010.6
20260904160511 67 325 4.0 9.0 0.00 0.00 0.00 68 1010.6
20260904160012 66 326 4.0 8.0 0.00 0.00 0.00 69 1010.6
20260904155509 66 269 3.0 8.0 0.00 0.00 0.00 69 1010.6
20260904155009 66 334 5.0 8.0 0.00 0.00 0.00 69 1010.5
20260904154508 66 341 4.0 8.0 0.00 0.00 0.00 69 1010.5
20260904154007 66 19 1.0 6.0 0.00 0.00 0.00 70 1010.5
20260904153507 66 328 3.0 6.0 0.00 0.00 0.00 70 1010.4
20260904153008 66 354 2.0 6.0 0.00 0.00 0.00 71 1010.4
20260904152508 66 330 2.0 6.0 0.00 0.00 0.00 71 1010.4
20260904152008 65 4 3.0 6.0 0.00 0.00 0.00 71 1010.4
20260904151506 65 280 2.0 6.0 0.00 0.00 0.00 72 1010.5
20260904151005 65 328 2.0 8.0 0.00 0.00 0.00 72 1010.4
20260904150507 65 326 2.0 10.0 0.00 0.00 0.00 73 1010.4
20260904150013 65 328 3.0 9.0 0.00 0.00 0.00 73 1010.3
20260904145503 64 354 3.0 10.0 0.00 0.00 0.00 73 1010.2
20260904145002 64 249 3.0 9.0 0.00 0.00 0.00 74 1010.2
20260904144501 64 329 2.0 9.0 0.00 0.00 0.00 75 1010.2
20260904144102 64 346 2.0 9.0 0.00 0.00 0.00 75 1010.1
20260904143600 64 335 3.0 8.0 0.00 0.00 0.00 76 1010.1
20260904143100 64 279 2.0 7.0 0.00 0.00 0.00 77 1010.0
20260904142558 64 332 1.0 5.0 0.00 0.00 0.00 77 1010.0
20260904142058 64 301 1.0 6.0 0.00 0.00 0.00 77 1010.0
20260904141556 64 276 3.0 9.0 0.00 0.00 0.00 77 1009.9
20260904141054 64 359 4.0 9.0 0.00 0.00 0.00 77 1009.9
20260904140553 63 308 4.0 9.0 0.00 0.00 0.00 78 1009.9
20260904140058 63 359 3.0 9.0 0.00 0.00 0.00 78 1009.9
20260904135551 63 344 1.0 9.0 0.00 0.00 0.00 79 1009.8
20260904135050 63 321 3.0 9.0 0.00 0.00 0.00 80 1009.8
20260904134552 63 314 3.0 9.0 0.00 0.00 0.00 80 1009.8
20260904134049 63 328 4.0 8.0 0.00 0.00 0.00 81 1009.7
20260904133551 63 303 3.0 10.0 0.00 0.00 0.00 82 1009.7
20260904133048 63 313 4.0 10.0 0.00 0.00 0.00 83 1009.7
20260904132548 63 304 3.0 8.0 0.00 0.00 0.00 83 1009.6
20260904132046 63 303 3.0 10.0 0.00 0.00 0.00 83 1009.6
20260904131546 63 328 3.0 10.0 0.00 0.00 0.00 83 1009.4
20260904131044 63 311 3.0 7.0 0.00 0.00 0.00 84 1009.4
20260904130545 63 286 3.0 7.0 0.00 0.00 0.00 84 1009.4
20260904130044 63 297 2.0 7.0 0.00 0.00 0.00 84 1009.3
20260904125543 63 302 3.0 8.0 0.00 0.00 0.00 84 1009.2
20260904125043 63 301 2.0 9.0 0.00 0.00 0.00 84 1009.2
20260904124542 63 273 2.0 7.0 0.00 0.00 0.00 84 1009.1
20260904124041 63 318 2.0 6.0 0.00 0.00 0.00 84 1009.1
20260904123546 63 334 2.0 8.0 0.00 0.00 0.00 85 1009.1
20260904123041 63 347 3.0 6.0 0.00 0.00 0.00 85 1009.0
20260904122540 63 335 2.0 7.0 0.00 0.00 0.00 85 1009.0
20260904122041 63 337 3.0 6.0 0.00 0.00 0.00 85 1008.9
20260904121540 63 308 2.0 6.0 0.00 0.00 0.00 86 1008.9
20260904121039 63 314 2.0 9.0 0.00 0.00 0.00 86 1009.0
20260904120539 63 340 4.0 9.0 0.00 0.00 0.00 86 1008.9
20260904120044 63 318 1.0 8.0 0.00 0.00 0.00 86 1008.9
20260904115538 63 341 2.0 8.0 0.00 0.00 0.00 86 1008.9
20260904115042 63 304 3.0 8.0 0.00 0.00 0.00 86 1009.0
20260904114543 63 334 2.0 6.0 0.00 0.00 0.00 86 1009.0
20260904114038 63 318 1.0 6.0 0.00 0.00 0.00 86 1008.9
20260904113538 63 328 2.0 8.0 0.00 0.00 0.00 86 1008.9
20260904113039 63 297 2.0 8.0 0.00 0.00 0.00 86 1009.0
20260904112537 63 337 3.0 6.0 0.00 0.00 0.00 86 1008.9
20260904112037 63 297 3.0 7.0 0.00 0.00 0.00 86 1008.9
20260904111536 63 300 2.0 8.0 0.00 0.00 0.00 86 1008.9
20260904111036 63 315 3.0 8.0 0.00 0.00 0.00 86 1008.9
20260904110538 63 339 3.0 8.0 0.00 0.00 0.00 86 1008.8
20260904110034 63 328 5.0 8.0 0.00 0.00 0.00 86 1008.7
20260904105538 64 301 2.0 8.0 0.00 0.00 0.00 86 1008.7
20260904105034 64 287 3.0 8.0 0.00 0.00 0.00 86 1008.7
20260904104534 64 337 3.0 8.0 0.00 0.00 0.00 86 1008.6
20260904104034 64 337 3.0 9.0 0.00 0.00 0.00 85 1008.7
20260904103534 64 253 3.0 9.0 0.00 0.00 0.00 85 1008.7
20260904103035 64 341 3.0 8.0 0.00 0.00 0.00 85 1008.7
20260904102532 64 321 3.0 9.0 0.00 0.00 0.00 85 1008.6
20260904102030 64 333 3.0 10.0 0.00 0.00 0.00 85 1008.6
20260904101529 64 281 2.0 9.0 0.00 0.00 0.00 84 1008.5
20260904101029 64 299 3.0 9.0 0.00 0.00 0.00 84 1008.5
20260904100527 64 339 3.0 6.0 0.00 0.00 0.00 84 1008.5
20260904100027 64 319 3.0 8.0 0.00 0.00 0.00 84 1008.4
20260904095525 64 284 3.0 8.0 0.00 0.00 0.00 83 1008.4
20260904095024 64 312 3.0 6.0 0.00 0.00 0.00 83 1008.5
20260904094537 64 341 3.0 6.0 0.00 0.00 0.00 83 1008.5
20260904094022 65 354 2.0 7.0 0.00 0.00 0.00 82 1008.4
20260904093522 65 299 3.0 8.0 0.00 0.00 0.00 82 1008.4
20260904093022 65 317 2.0 9.0 0.00 0.00 0.00 82 1008.3
20260904092523 65 298 3.0 9.0 0.00 0.00 0.00 82 1008.3
20260904092020 65 314 3.0 7.0 0.00 0.00 0.00 81 1008.3
20260904091529 65 296 2.0 8.0 0.00 0.00 0.00 81 1008.2
20260904091020 65 325 3.0 9.0 0.00 0.00 0.00 81 1008.2
20260904090519 65 285 4.0 9.0 0.00 0.00 0.00 81 1008.1
20260904090018 65 274 3.0 6.0 0.00 0.00 0.00 81 1008.1
20260904085519 65 258 3.0 8.0 0.00 0.00 0.00 81 1008.2
20260904085018 65 261 3.0 9.0 0.00 0.00 0.00 80 1008.3
20260904084517 65 245 5.0 9.0 0.00 0.00 0.00 80 1008.2
20260904084017 65 288 4.0 9.0 0.00 0.00 0.00 80 1008.2
20260904083515 65 252 4.0 9.0 0.00 0.00 0.00 80 1008.3
20260904083015 65 322 5.0 9.0 0.00 0.00 0.00 80 1008.3
20260904082515 65 241 4.0 9.0 0.00 0.00 0.00 80 1008.3
20260904082013 65 270 4.0 10.0 0.00 0.00 0.00 79 1008.4
20260904081513 65 270 4.0 10.0 0.00 0.00 0.00 79 1008.3
20260904081011 66 285 6.0 10.0 0.00 0.00 0.00 78 1008.3
20260904080510 66 270 4.0 8.0 0.00 0.00 0.00 78 1008.3
20260904080010 66 330 3.0 7.0 0.00 0.00 0.00 77 1008.2
20260904075512 66 243 3.0 9.0 0.00 0.00 0.00 77 1008.2
20260904075009 66 325 4.0 9.0 0.00 0.00 0.00 76 1008.2
20260904074507 67 283 4.0 8.0 0.00 0.00 0.00 76 1008.2
20260904074007 67 262 5.0 9.0 0.00 0.00 0.00 76 1008.1
20260904073511 67 265 4.0 9.0 0.00 0.00 0.00 76 1008.0
20260904073006 67 274 3.0 9.0 0.00 0.00 0.00 76 1008.1
20260904072505 67 258 3.0 9.0 0.00 0.00 0.00 76 1008.1
20260904072004 67 301 4.0 10.0 0.00 0.00 0.00 76 1008.0
20260904071503 67 262 4.0 10.0 0.00 0.00 0.00 75 1008.0
20260904071003 67 268 3.0 9.0 0.00 0.00 0.00 75 1008.1
20260904070503 67 326 4.0 10.0 0.00 0.00 0.00 75 1008.1
20260904070004 67 318 3.0 9.0 0.00 0.00 0.00 75 1008.1
20260904065503 67 259 3.0 8.0 0.00 0.00 0.00 74 1008.1
20260904065002 68 283 4.0 11.0 0.00 0.00 0.00 74 1008.1
20260904064502 68 305 4.0 11.0 0.00 0.00 0.00 74 1008.1
20260904064002 68 321 3.0 9.0 0.00 0.00 0.00 74 1008.1
20260904063502 68 317 4.0 12.0 0.00 0.00 0.00 74 1008.1
20260904063001 68 296 4.0 12.0 0.00 0.00 0.00 74 1008.0
20260904062502 68 320 3.0 10.0 0.00 0.00 0.00 73 1008.0
20260904062001 68 307 3.0 9.0 0.00 0.00 0.00 73 1007.9
20260904061600 68 309 3.0 9.0 0.00 0.00 0.00 73 1008.0
20260904061100 68 338 5.0 10.0 0.00 0.00 0.00 73 1007.9
20260904060600 68 280 4.0 10.0 0.00 0.00 0.00 73 1008.0
20260904060118 68 250 3.0 9.0 0.00 0.00 0.00 72 1008.0
20260904055559 68 303 2.0 10.0 0.00 0.00 0.00 72 1007.9
20260904055059 69 295 4.0 12.0 0.00 0.00 0.00 71 1007.9
20260904054559 69 287 4.0 12.0 0.00 0.00 0.00 71 1007.9
20260904054100 69 303 4.0 10.0 0.00 0.00 0.00 71 1008.0
20260904053559 69 314 3.0 11.0 0.00 0.00 0.00 70 1008.0
20260904053059 69 304 6.0 11.0 0.00 0.00 0.00 70 1007.9
20260904052559 69 278 4.0 10.0 0.00 0.00 0.00 70 1008.0
20260904052059 70 324 5.0 13.0 0.00 0.00 0.00 70 1008.0
20260904051558 70 245 5.0 10.0 0.00 0.00 0.00 69 1008.1
20260904051058 70 342 4.0 10.0 0.00 0.00 0.00 69 1008.1
20260904050558 70 320 4.0 11.0 0.00 0.00 0.00 68 1008.2
20260904050059 70 339 5.0 11.0 0.00 0.00 0.00 68 1008.1
20260904045558 71 342 4.0 11.0 0.00 0.00 0.00 68 1008.1
20260904045100 71 297 5.0 11.0 0.00 0.00 0.00 67 1008.1
20260904044559 71 336 4.0 10.0 0.00 0.00 0.00 66 1008.0
20260904044058 71 312 5.0 10.0 0.00 0.00 0.00 66 1007.9
20260904043604 72 291 3.0 8.0 0.00 0.00 0.00 65 1007.9
20260904043105 72 331 3.0 14.0 0.00 0.00 0.00 64 1007.9
20260904042559 72 345 4.0 14.0 0.00 0.00 0.00 64 1007.8
20260904042102 72 343 6.0 12.0 0.00 0.00 0.00 63 1007.7
20260904041600 73 354 6.0 13.0 0.00 0.00 0.00 62 1007.6
20260904041057 73 332 8.0 13.0 0.00 0.00 0.00 61 1007.5
20260904040557 74 312 6.0 13.0 0.00 0.00 0.00 61 1007.5
20260904040057 74 341 5.0 15.0 0.00 0.00 0.00 60 1007.5
20260904035557 74 331 8.0 15.0 0.00 0.00 0.00 59 1007.5
20260904035100 75 317 4.0 10.0 0.00 0.00 0.00 58 1007.3
20260904034556 75 335 4.0 10.0 0.00 0.00 0.00 57 1007.2
20260904034056 75 321 4.0 9.0 0.00 0.00 0.00 56 1007.1
20260904033555 75 299 4.0 9.0 0.00 0.00 0.00 56 1007.0
20260904033056 75 354 3.0 9.0 0.00 0.00 0.00 54 1007.0
20260904032555 75 304 2.0 8.0 0.00 0.00 0.00 51 1006.9
20260904032055 75 325 3.0 8.0 0.00 0.00 0.00 51 1006.9
20260904031555 75 251 4.0 9.0 0.00 0.00 0.00 50 1006.8
20260904031055 76 240 5.0 11.0 0.00 0.00 0.00 48 1006.6
20260904030555 77 276 4.0 11.0 0.00 0.00 0.00 46 1006.6
20260904030055 79 248 6.0 11.0 0.00 0.00 0.00 44 1006.6
20260904025558 80 249 1.0 5.0 0.00 0.00 0.00 40 1006.6
20260904025054 80 316 2.0 6.0 0.00 0.00 0.00 39 1006.5
20260904024604 80 330 2.0 6.0 0.00 0.00 0.00 39 1006.5
20260904024055 80 341 2.0 5.0 0.00 0.00 0.00 38 1006.5
20260904023558 80 330 1.0 3.0 0.00 0.00 0.00 38 1006.5
20260904023053 81 344 1.0 3.0 0.00 0.00 0.00 37 1006.5
20260904022557 81 297 1.0 3.0 0.00 0.00 0.00 36 1006.5
20260904022053 82 322 1.0 3.0 0.00 0.00 0.00 36 1006.5
20260904021556 82 333 0.0 3.0 0.00 0.00 0.00 35 1006.5
20260904021053 82 16 0.0 3.0 0.00 0.00 0.00 35 1006.5
20260904020553 83 51 1.0 5.0 0.00 0.00 0.00 34 1006.5
20260904020052 83 337 2.0 6.0 0.00 0.00 0.00 34 1006.6
20260904015551 83 311 2.0 5.0 0.00 0.00 0.00 34 1006.6
20260904015051 83 4 3.0 5.0 0.00 0.00 0.00 33 1006.6
20260904014554 84 331 2.0 6.0 0.00 0.00 0.00 33 1006.7
20260904014050 83 33 1.0 6.0 0.00 0.00 0.00 33 1006.7
20260904013553 84 338 3.0 6.0 0.00 0.00 0.00 32 1006.7
20260904013111 84 340 3.0 6.0 0.00 0.00 0.00 32 1006.7
20260904012554 84 30 2.0 6.0 0.00 0.00 0.00 32 1006.7
20260904012050 84 299 2.0 8.0 0.00 0.00 0.00 31 1006.7
20260904011550 84 299 3.0 8.0 0.00 0.00 0.00 32 1006.7
20260904011053 84 340 3.0 8.0 0.00 0.00 0.00 32 1006.7
20260904010549 84 299 3.0 6.0 0.00 0.00 0.00 32 1006.7
20260904010050 83 307 3.0 7.0 0.00 0.00 0.00 32 1006.8
20260904005550 83 302 2.0 6.0 0.00 0.00 0.00 32 1006.8
20260904005049 84 289 2.0 6.0 0.00 0.00 0.00 31 1006.8
20260904004549 84 331 3.0 9.0 0.00 0.00 0.00 30 1006.8
20260904004049 85 278 3.0 4.0 0.00 0.00 0.00 30 1006.8
20260904003548 85 314 2.0 6.0 0.00 0.00 0.00 29 1006.8
20260904003048 85 276 3.0 10.0 0.00 0.00 0.00 28 1006.9
20260904002548 86 256 5.0 10.0 0.00 0.00 0.00 27 1006.9
20260904002047 86 341 2.0 8.0 0.00 0.00 0.00 28 1006.9
20260904001601 85 283 5.0 8.0 0.00 0.00 0.00 28 1007.0
20260904001045 85 354 4.0 8.0 0.00 0.00 0.00 27 1007.0
20260904000550 86 321 2.0 8.0 0.00 0.00 0.00 27 1007.1
20260904000045 86 326 3.0 8.0 0.00 0.00 0.00 27 1007.1
20260903235546 86 305 4.0 10.0 0.00 0.00 0.00 26 1007.2
20260903235043 86 318 3.0 10.0 0.00 0.00 0.00 26 1007.3
20260903234543 86 337 3.0 8.0 0.00 0.00 0.00 25 1007.3
20260903234043 86 331 2.0 8.0 0.00 0.00 0.00 25 1007.4
20260903233542 86 323 2.0 6.0 0.00 0.00 0.00 26 1007.4
20260903233044 85 326 2.0 9.0 0.00 0.00 0.00 27 1007.5
20260903232539 85 325 4.0 11.0 0.00 0.00 0.00 27 1007.5
20260903232039 85 317 5.0 10.0 0.00 0.00 0.00 27 1007.5
20260903231541 86 299 4.0 8.0 0.00 0.00 0.00 27 1007.7
20260903231037 86 253 3.0 8.0 0.00 0.00 0.00 28 1007.7
20260903230539 85 301 1.0 9.0 0.00 0.00 0.00 27 1007.8
20260903230037 85 260 4.0 10.0 0.00 0.00 0.00 28 1007.9
20260903225534 85 277 3.0 11.0 0.00 0.00 0.00 29 1007.9
20260903225033 84 197 2.0 13.0 0.00 0.00 0.00 30 1008.0
20260903224539 84 253 7.0 13.0 0.00 0.00 0.00 30 1008.1
20260903224034 84 339 1.0 11.0 0.00 0.00 0.00 30 1008.1
20260903223536 84 314 6.0 14.0 0.00 0.00 0.00 31 1008.3
20260903223031 85 300 7.0 14.0 0.00 0.00 0.00 31 1008.2
20260903222531 85 269 6.0 12.0 0.00 0.00 0.00 31 1008.3
20260903222034 84 258 2.0 9.0 0.00 0.00 0.00 31 1008.4
20260903221530 84 224 6.0 9.0 0.00 0.00 0.00 32 1008.4
20260903221028 85 261 3.0 8.0 0.00 0.00 0.00 31 1008.5
20260903220531 85 228 5.0 11.0 0.00 0.00 0.00 31 1008.6
20260903220027 84 253 6.0 11.0 0.00 0.00 0.00 31 1008.6
20260903215526 84 210 1.0 11.0 0.00 0.00 0.00 35 1008.7
20260903215026 84 31 3.0 12.0 0.00 0.00 0.00 35 1008.8
20260903214533 84 266 2.0 9.0 0.00 0.00 0.00 35 1008.8
20260903214022 83 237 4.0 12.0 0.00 0.00 0.00 36 1008.8
20260903213522 82 264 7.0 12.0 0.00 0.00 0.00 37 1008.8
20260903213034 82 317 6.0 11.0 0.00 0.00 0.00 37 1008.9
20260903212527 82 177 0.0 13.0 0.00 0.00 0.00 38 1009.0
20260903212020 82 310 6.0 13.0 0.00 0.00 0.00 39 1008.9
20260903211520 82 236 3.0 9.0 0.00 0.00 0.00 39 1009.0